Temp
4 4 4 4 3 3 3 3 3 3 3 3 3 3 3 3 3 3 3 2 2 2 2 2 2 2 2 2 2 2 2 2 2 2 2 2 2 2 2 1 2 2 2 1 1 1 1 1 1 1 1 1
4 4 3 3 3 3 3 3 2 2 2 3 3 3 3 3 2 2 3 2 2 2 2 2 2 2 2 2 2 2 2 2 2 2 1 1 1 1 1 1 1 1 1 1 1 1 1 1 1 1 1 1
3 3 3 3 3 3 3 2 2 2 2 3 2 2 3 2 2 2 3 2 2 2 2 2 2 2 2 2 2 2 2 2 1 1 1 1 1 1 1 1 1 1 1 1 1 1 1 1 1 1 1 1
3 3 3 3 3 2 2 2 2 2 2 2 2 2 3 2 2 2 2 2 2 2 2 2 2 2 2 2 1 1 1 1 1 1 1 1 1 1 1 1 1 1 1 1 1 1 1 1 1 1 1 1
3 3 3 3 2 2 2 2 2 2 2 2 2 2 2 2 2 2 2 2 2 2 2 2 2 2 1 1 1 1 1 1 1 1 1 1 1 1 1 1 1 1 1 1 1 1 1 1 1 1 1 1
3 3 2 2 2 2 2 2 2 2 2 2 2 2 2 2 2 2 2 2 2 2 2 1 1 1 1 1 1 1 1 1 1 1 1 1 1 1 0 0 0 0 0 0 0 0 1 1 1 0 0 0
3 2 2 2 2 2 2 2 2 2 2 2 2 2 2 2 2 2 2 2 2 1 1 1 1 1 1 1 1 1 1 1 1 1 1 0 0 0 0 0 0 0 0 0 0 0 0 0 0 0 0 0
3 2 2 2 2 2 2 2 2 2 2 2 2 2 2 2 2 2 2 1 1 1 1 1 1 1 1 1 1 1 1 1 1 0 0 0 0 0 0 0 0 0 0 0 0 0 0 0 0 0 -0 -0
3 2 2 2 2 2 2 2 2 2 2 2 2 2 2 2 2 1 1 1 1 1 1 1 1 1 1 1 1 0 0 0 0 0 0 0 0 -0 -0 -0 -0 -0 -0 -0 -0 -0 -0 -0 -0 -0 -0 -0
2 2 2 2 2 2 2 2 2 2 2 2 2 2 2 2 1 1 1 1 1 1 1 1 0 0 0 0 0 0 0 0 0 -0 -0 -0 -0 -0 -0 -0 -0 -0 -0 -0 -0 -0 -0 -0 -1 -1 -1 -1
2 2 2 2 2 2 2 2 2 2 2 2 2 2 2 1 1 1 1 1 1 1 1 1 0 0 0 0 0 0 -0 -0 -0 -0 -0 -0 -0 -0 -1 -1 -1 -1 -1 -1 -1 -1 -1 -1 -1 -1 -1 -1
2 2 2 2 2 2 2 2 2 2 2 2 2 2 1 1 1 1 1 1 1 1 1 1 0 0 0 -0 -0 -0 -0 -0 -0 -0 -0 -0 -1 -1 -1 -1 -1 -1 -1 -1 -1 -1 -1 -1 -1 -1 -1 -1
2 2 2 2 2 2 2 2 2 2 2 2 2 1 1 1 1 1 1 1 1 1 1 1 0 0 0 -0 -0 -0 -0 -0 -0 -0 -1 -1 -1 -1 -1 -1 -1 -1 -1 -1 -1 -1 -1 -1 -1 -1 -1 -1
2 2 2 2 2 2 2 2 2 2 2 1 1 1 1 1 1 1 1 1 1 1 1 1 0 0 0 -0 -0 -0 -0 -0 -0 -0 -1 -1 -1 -1 -1 -1 -1 -1 -1 -1 -1 -1 -1 -1 -1 -1 -1 -1
2 2 2 2 2 2 2 2 2 2 2 1 1 1 1 1 1 1 1 1 1 1 0 0 0 0 0 -0 -0 -0 -0 -0 -0 -0 -0 -0 -0 -0 -0 -1 -1 -1 -1 -1 -1 -1 -1 -1 -1 -2 -2 -2
2 2 2 2 2 2 2 2 2 2 2 1 1 1 1 1 0 0 0 0 0 0 0 0 0 0 0 0 0 -0 -0 -0 -0 -0 0 0 -0 -0 -0 -1 -1 -1 -1 -1 -1 -1 -2 -2 -2 -2 -2 -2
2 2 2 2 2 2 2 2 2 2 1 1 1 1 1 0 0 0 0 0 0 0 0 0 0 0 0 0 0 0 -0 -0 -0 0 0 0 -0 -0 -0 -1 -1 -1 -1 -2 -2 -2 -2 -2 -2 -2 -2 -3
2 2 2 2 2 2 2 2 1 1 1 1 1 1 0 0 0 -0 -0 -0 -0 0 0 0 0 0 0 0 -0 -0 -0 -0 -0 -0 -0 -0 -0 -1 -1 -1 -1 -1 -2 -2 -2 -2 -2 -2 -2 -3 -3 -3
1 1 1 1 1 1 1 1 1 1 1 1 1 1 1 0 0 -0 -0 -0 -0 -0 -0 -0 -0 -0 -0 -0 -0 -0 -0 -0 -0 -0 -0 -0 -0 -1 -1 -1 -1 -1 -1 -2 -2 -2 -2 -2 -2 -3 -3 -3
1 1 1 1 1 1 1 1 1 1 1 1 1 0 0 0 0 -0 -0 -0 -0 -0 -0 -0 -0 -0 -0 -0 -0 -0 -0 -0 -0 -1 -1 -1 -0 -1 -1 -1 -1 -1 -2 -2 -2 -2 -3 -3 -2 -3 -3 -3
1 1 1 0 1 1 1 0 0 0 0 0 0 0 0 0 0 -0 -0 -0 -0 -1 -1 -1 -1 -1 -1 -1 -1 -1 -1 -1 -1 -1 -1 -1 -1 -1 -1 -1 -1 -1 -2 -2 -2 -2 -3 -3 -3 -3 -3 -3
0 0 0 0 0 0 0 0 0 0 0 0 -0 -0 -0 0 -0 -0 -0 -0 -0 -1 -1 -1 -1 -1 -1 -1 -1 -1 -1 -1 -1 -1 -1 -2 -2 -2 -1 -1 -1 -1 -2 -2 -2 -2 -3 -3 -3 -3 -3 -3
0 0 0 0 0 0 0 0 0 -0 -0 -0 -0 -0 -0 -0 -0 -0 -1 -1 -1 -1 -1 -1 -1 -1 -1 -1 -1 -1 -1 -1 -1 -1 -2 -2 -2 -2 -2 -2 -2 -2 -2 -2 -2 -2 -2 -3 -3 -3 -3 -3
0 0 0 0 0 0 -0 -0 -0 -0 -0 -0 -0 -0 -1 -1 -1 -1 -1 -1 -1 -1 -1 -1 -1 -1 -1 -1 -1 -1 -2 -2 -2 -2 -2 -2 -2 -2 -2 -2 -2 -2 -2 -2 -2 -2 -2 -3 -3 -3 -3 -4
0 -0 -0 -0 -0 -0 -0 -0 -0 -0 -1 -1 -1 -1 -1 -1 -1 -1 -1 -1 -1 -1 -2 -2 -2 -2 -2 -2 -2 -2 -2 -2 -2 -2 -2 -2 -2 -2 -2 -3 -3 -2 -2 -2 -2 -2 -2 -3 -3 -4 -4 -4
-0 -0 -0 -0 -0 -0 -0 -1 -1 -1 -1 -1 -1 -1 -1 -1 -1 -2 -2 -2 -2 -2 -2 -2 -2 -2 -2 -2 -2 -2 -2 -2 -2 -2 -2 -2 -2 -3 -3 -3 -3 -3 -3 -2 -2 -2 -2 -2 -3 -3 -4 -4
-1 -1 -1 -1 -1 -1 -1 -1 -1 -1 -1 -1 -1 -1 -1 -1 -2 -2 -2 -2 -2 -2 -2 -2 -2 -2 -2 -2 -2 -2 -2 -2 -2 -2 -2 -3 -3 -3 -3 -3 -3 -3 -3 -3 -3 -3 -3 -3 -3 -3 -3 -3
-1 -1 -1 -1 -1 -1 -1 -1 -1 -1 -1 -2 -2 -2 -2 -2 -2 -2 -2 -2 -2 -3 -3 -3 -3 -3 -2 -2 -2 -2 -3 -3 -3 -3 -3 -3 -3 -3 -3 -3 -4 -4 -4 -4 -4 -4 -4 -3 -3 -3 -3 -3
-1 -1 -1 -1 -1 -1 -1 -1 -1 -2 -2 -2 -2 -2 -2 -2 -2 -2 -2 -3 -3 -3 -3 -3 -3 -3 -3 -3 -3 -3 -3 -3 -3 -3 -3 -4 -4 -4 -4 -4 -4 -4 -4 -5 -5 -5 -5 -4 -4 -4 -4 -4
-2 -2 -2 -2 -2 -2 -2 -2 -2 -2 -2 -2 -2 -2 -2 -3 -3 -3 -3 -3 -3 -3 -4 -4 -4 -4 -4 -4 -4 -4 -4 -4 -4 -4 -4 -4 -4 -4 -4 -4 -4 -5 -5 -5 -5 -6 -6 -6 -5 -5 -5 -5
-2 -2 -2 -2 -2 -2 -2 -2 -2 -2 -2 -2 -2 -3 -3 -3 -3 -3 -3 -4 -4 -4 -4 -4 -4 -4 -4 -4 -4 -4 -4 -4 -4 -4 -4 -4 -4 -4 -4 -4 -5 -5 -5 -6 -6 -6 -6 -6 -7 -6 -6 -6
Height
3162 3161 3159 3158 3156 3155 3153 3152 3150 3149 3148 3147 3145 3144 3143 3142 3140 3139 3138 3137 3136 3135 3133 3132 3131 3129 3128 3126 3124 3122 3121 3119 3118 3116 3114 3112 3109 3107 3106 3104 3102 3100 3099 3097 3095 3094 3092 3091 3089 3087 3086 3084
3161 3159 3158 3156 3155 3154 3152 3151 3150 3148 3147 3146 3145 3144 3142 3141 3140 3139 3138 3136 3135 3134 3133 3131 3130 3128 3126 3125 3123 3121 3120 3118 3116 3114 3112 3110 3108 3106 3104 3102 3101 3099 3097 3096 3094 3092 3091 3089 3087 3086 3084 3082
3160 3158 3157 3156 3154 3153 3151 3150 3149 3148 3147 3145 3144 3143 3142 3140 3139 3138 3137 3136 3134 3133 3131 3130 3128 3127 3125 3123 3122 3120 3118 3117 3115 3113 3110 3109 3107 3105 3103 3101 3099 3097 3096 3094 3092 3091 3089 3087 3086 3084 3082 3081
3159 3158 3156 3155 3153 3152 3151 3149 3148 3147 3146 3144 3143 3142 3141 3139 3138 3137 3136 3135 3133 3132 3130 3129 3127 3125 3124 3122 3121 3119 3117 3115 3113 3111 3109 3107 3105 3103 3101 3099 3097 3096 3094 3092 3091 3089 3087 3086 3084 3082 3080 3079
3158 3156 3155 3153 3152 3151 3150 3148 3147 3146 3144 3143 3142 3141 3139 3138 3137 3136 3135 3133 3132 3131 3129 3128 3126 3124 3122 3121 3119 3117 3115 3113 3111 3109 3107 3105 3103 3101 3099 3098 3096 3094 3092 3091 3089 3087 3085 3083 3082 3080 3078 3076
3156 3155 3153 3152 3151 3149 3148 3147 3146 3144 3143 3142 3141 3139 3138 3137 3136 3135 3134 3132 3131 3129 3128 3126 3125 3123 3121 3119 3118 3116 3114 3111 3109 3107 3105 3103 3101 3100 3098 3096 3094 3092 3091 3089 3087 3085 3083 3081 3080 3078 3076 3074
3154 3153 3152 3150 3149 3148 3147 3145 3144 3143 3142 3140 3140 3138 3137 3136 3135 3134 3132 3131 3129 3128 3126 3125 3123 3121 3119 3118 3116 3113 3111 3109 3107 3105 3103 3102 3100 3098 3096 3095 3093 3091 3089 3087 3085 3083 3081 3080 3078 3076 3074 3073
3153 3151 3150 3148 3147 3146 3145 3144 3142 3141 3140 3139 3138 3137 3136 3135 3133 3132 3131 3129 3128 3127 3125 3123 3121 3119 3117 3115 3113 3111 3109 3107 3105 3103 3102 3100 3098 3096 3095 3093 3091 3089 3087 3085 3083 3082 3080 3078 3076 3074 3072 3070
3151 3149 3148 3147 3145 3144 3143 3142 3141 3140 3139 3138 3137 3136 3135 3133 3132 3130 3129 3128 3126 3125 3123 3121 3119 3117 3115 3113 3111 3109 3107 3105 3103 3102 3100 3098 3096 3095 3093 3091 3090 3088 3086 3084 3082 3080 3078 3076 3074 3072 3070 3069
3149 3148 3146 3145 3144 3143 3142 3141 3140 3139 3138 3137 3136 3134 3133 3132 3130 3129 3128 3126 3125 3123 3121 3119 3117 3116 3114 3112 3110 3108 3106 3104 3102 3100 3098 3096 3094 3093 3091 3089 3087 3086 3084 3082 3080 3078 3076 3075 3073 3071 3069 3067
3148 3147 3145 3144 3143 3142 3141 3140 3139 3138 3137 3135 3134 3133 3132 3130 3129 3127 3126 3125 3123 3121 3119 3118 3116 3114 3112 3110 3108 3106 3104 3102 3100 3099 3097 3095 3093 3091 3089 3087 3085 3084 3082 3081 3079 3077 3075 3073 3071 3069 3067 3065
3147 3146 3145 3143 3142 3141 3140 3139 3138 3136 3135 3134 3133 3132 3130 3129 3127 3126 3124 3123 3121 3119 3118 3116 3114 3112 3110 3108 3106 3104 3103 3101 3099 3097 3095 3093 3091 3089 3087 3085 3083 3081 3080 3078 3076 3074 3072 3070 3068 3066 3064 3062
3145 3144 3143 3142 3141 3139 3138 3137 3136 3135 3134 3133 3131 3130 3128 3127 3125 3124 3123 3121 3119 3117 3116 3114 3112 3110 3108 3106 3105 3103 3101 3099 3097 3095 3093 3091 3089 3087 3085 3083 3081 3079 3077 3075 3073 3071 3069 3067 3065 3063 3061 3059
3143 3142 3141 3140 3139 3138 3137 3136 3135 3133 3132 3131 3129 3128 3127 3125 3124 3122 3121 3119 3117 3115 3113 3112 3110 3108 3106 3105 3103 3101 3099 3097 3095 3093 3091 3089 3087 3085 3082 3080 3078 3076 3074 3072 3070 3068 3066 3064 3062 3060 3058 3057
3141 3140 3139 3138 3137 3136 3135 3134 3133 3132 3130 3129 3128 3126 3125 3123 3122 3120 3119 3117 3115 3113 3112 3110 3108 3106 3104 3102 3100 3098 3096 3094 3092 3090 3089 3086 3084 3082 3079 3077 3075 3073 3071 3069 3067 3065 3063 3061 3060 3058 3056 3054
3140 3138 3137 3136 3135 3134 3133 3132 3131 3130 3129 3127 3126 3124 3123 3122 3120 3119 3117 3115 3113 3111 3109 3107 3105 3104 3102 3100 3098 3096 3094 3092 3090 3087 3085 3083 3081 3078 3076 3074 3072 3070 3068 3067 3065 3063 3061 3059 3057 3055 3053 3051
3138 3137 3136 3135 3133 3132 3131 3130 3129 3128 3127 3125 3124 3122 3121 3120 3118 3117 3115 3113 3111 3109 3107 3105 3103 3101 3099 3097 3095 3093 3091 3089 3087 3084 3082 3080 3078 3075 3073 3072 3070 3068 3066 3064 3062 3060 3058 3056 3055 3053 3050 3048
3136 3135 3134 3133 3132 3130 3129 3128 3127 3126 3124 3123 3122 3120 3119 3118 3116 3114 3112 3110 3109 3107 3104 3102 3100 3098 3096 3094 3092 3090 3088 3086 3084 3081 3079 3077 3075 3073 3071 3069 3067 3066 3064 3062 3060 3058 3056 3054 3052 3050 3048 3046
3134 3133 3132 3131 3130 3129 3127 3126 3125 3124 3122 3121 3120 3118 3117 3115 3113 3111 3109 3108 3106 3104 3102 3100 3098 3096 3094 3092 3090 3087 3085 3083 3081 3078 3076 3074 3072 3071 3069 3067 3065 3063 3062 3060 3058 3056 3053 3051 3049 3047 3045 3043
3132 3131 3130 3129 3128 3127 3125 3124 3123 3121 3120 3119 3117 3115 3114 3112 3110 3108 3106 3105 3103 3101 3099 3097 3095 3093 3091 3089 3087 3084 3082 3080 3078 3075 3073 3071 3069 3067 3066 3065 3063 3061 3059 3057 3055 3053 3051 3048 3045 3043 3041 3040
3130 3129 3128 3127 3126 3124 3123 3122 3121 3119 3118 3116 3114 3112 3111 3109 3107 3105 3103 3102 3100 3098 3096 3095 3093 3090 3088 3086 3084 3081 3079 3076 3074 3072 3070 3068 3066 3064 3062 3061 3059 3058 3057 3055 3052 3050 3048 3045 3042 3040 3038 3036
3128 3127 3126 3125 3123 3122 3121 3119 3118 3117 3115 3113 3111 3109 3107 3106 3104 3102 3100 3098 3097 3095 3093 3091 3089 3087 3085 3083 3080 3077 3075 3073 3070 3068 3067 3065 3063 3061 3059 3057 3055 3053 3053 3051 3049 3047 3045 3042 3039 3036 3034 3032
3126 3125 3123 3122 3121 3119 3118 3116 3115 3114 3112 3110 3108 3106 3104 3102 3101 3099 3097 3095 3093 3091 3090 3088 3085 3083 3081 3079 3076 3074 3071 3069 3067 3065 3063 3062 3060 3058 3055 3053 3051 3048 3047 3046 3044 3043 3041 3038 3035 3033 3030 3027
3123 3122 3121 3119 3118 3117 3115 3113 3112 3111 3109 3107 3105 3102 3100 3098 3097 3095 3093 3091 3089 3087 3086 3083 3081 3079 3077 3075 3073 3070 3068 3066 3064 3062 3060 3058 3056 3054 3052 3049 3047 3044 3042 3039 3038 3037 3036 3033 3031 3028 3026 3023
3121 3119 3118 3117 3115 3114 3112 3111 3109 3108 3106 3104 3102 3099 3097 3095 3093 3091 3089 3087 3085 3083 3081 3079 3077 3075 3073 3071 3069 3067 3065 3063 3060 3058 3056 3054 3052 3050 3047 3045 3042 3040 3037 3034 3032 3031 3030 3029 3027 3024 3022 3020
3118 3117 3115 3114 3112 3111 3110 3108 3106 3105 3103 3101 3099 3097 3094 3091 3089 3087 3085 3083 3081 3079 3077 3075 3073 3071 3069 3067 3065 3063 3061 3058 3056 3053 3051 3049 3047 3044 3042 3040 3037 3035 3032 3029 3027 3024 3023 3023 3021 3020 3018 3016
3116 3114 3112 3111 3109 3108 3106 3105 3103 3102 3100 3098 3096 3094 3091 3089 3086 3084 3082 3079 3077 3075 3073 3071 3069 3067 3065 3063 3061 3058 3056 3054 3051 3049 3046 3044 3042 3039 3037 3035 3032 3030 3027 3024 3022 3019 3016 3015 3014 3013 3012 3010
3112 3110 3109 3108 3106 3104 3103 3101 3100 3098 3097 3095 3093 3091 3088 3085 3083 3080 3078 3075 3073 3071 3069 3067 3065 3063 3061 3058 3056 3054 3051 3049 3046 3044 3042 3039 3037 3035 3032 3030 3028 3025 3023 3020 3017 3014 3011 3009 3007 3005 3004 3003
3108 3107 3106 3104 3103 3101 3100 3098 3096 3094 3093 3090 3089 3087 3084 3081 3079 3076 3074 3071 3069 3067 3065 3063 3061 3059 3057 3054 3051 3049 3047 3044 3042 3039 3037 3034 3032 3030 3027 3025 3023 3020 3018 3015 3012 3009 3006 3003 3000 2999 2997 2995
3105 3104 3102 3101 3099 3098 3096 3094 3093 3090 3088 3086 3084 3083 3080 3077 3075 3072 3070 3068 3065 3063 3061 3059 3056 3054 3052 3049 3047 3044 3042 3040 3037 3035 3032 3030 3027 3025 3023 3020 3018 3016 3013 3010 3008 3005 3002 2999 2996 2993 2991 2987
3102 3101 3099 3097 3095 3094 3092 3090 3089 3087 3084 3082 3081 3079 3076 3073 3071 3068 3066 3064 3061 3059 3057 3054 3051 3049 3046 3044 3042 3039 3037 3035 3032 3030 3028 3025 3023 3020 3018 3015 3013 3010 3008 3005 3003 3000 2998 2995 2992 2988 2986 2983
Wind_Speed
19 19 19 19 18 17 16 15 15 14 13 12 12 12 11 11 10 10 9 8 7 7 7 8 8 9 9 10 11 12 13 13 14 14 15 17 18 19 19 20 20 21 21 22 22 23 23 24 24 25 25 25
19 19 18 18 17 16 16 14 14 13 12 12 11 11 11 10 9 9 7 7 7 7 7 8 8 9 10 11 11 12 12 13 14 14 16 17 18 19 19 20 20 21 21 22 22 23 23 23 24 24 25 25
19 18 18 17 17 16 15 14 13 12 12 11 11 11 10 9 8 7 7 6 7 7 8 8 9 10 10 11 11 11 12 13 14 15 16 17 17 18 19 20 20 21 21 22 22 22 23 23 23 24 24 25
19 18 18 17 17 16 14 14 13 12 12 11 11 11 9 8 7 7 7 7 8 8 9 9 10 10 11 11 12 12 12 13 14 15 15 16 17 18 19 19 20 21 21 22 22 22 23 23 23 24 24 25
19 18 18 17 16 15 14 13 13 12 12 11 11 10 8 8 8 8 8 9 9 10 10 10 11 11 11 12 12 12 12 13 13 14 15 16 17 17 18 19 20 21 21 21 22 23 23 24 24 24 25 25
18 18 18 17 16 15 14 13 13 12 11 11 11 9 9 9 9 10 10 10 11 11 11 11 12 12 12 12 12 12 13 13 14 14 15 16 16 17 18 19 19 20 21 21 22 23 24 24 24 25 25 25
18 18 17 16 16 15 14 14 13 12 11 11 11 10 10 10 11 11 12 12 13 13 13 13 13 13 13 13 13 13 14 14 14 15 15 16 16 17 17 18 19 20 20 21 22 23 23 24 24 25 25 25
18 17 17 16 15 15 14 14 13 12 11 11 11 11 11 12 12 13 13 14 14 14 14 14 14 14 14 14 14 14 15 15 15 15 15 16 16 16 17 17 18 19 20 21 21 22 23 24 24 25 25 26
18 17 17 16 16 15 15 14 13 13 12 12 13 13 13 14 14 14 15 15 15 16 15 15 15 15 15 15 15 15 15 15 15 16 16 16 16 16 17 17 18 18 20 21 22 22 23 24 24 25 25 26
18 17 17 17 16 16 15 15 14 13 13 14 15 15 15 15 15 15 16 16 16 16 16 16 16 16 16 16 16 16 16 15 15 16 16 16 17 17 18 18 19 19 19 20 21 22 23 23 24 24 25 25
18 18 17 17 17 17 16 15 15 15 15 16 16 16 16 16 16 17 17 17 17 17 17 17 16 17 17 17 16 16 16 17 16 16 16 17 17 17 18 19 19 20 20 20 21 22 23 24 24 24 25 25
19 18 18 18 17 17 17 16 16 16 16 17 18 18 18 18 18 18 18 18 18 18 18 18 18 18 18 17 18 17 17 17 18 18 18 18 18 18 18 19 20 20 21 21 21 22 23 24 25 26 26 27
19 18 18 18 18 18 17 17 17 17 18 19 19 19 19 19 19 19 19 19 19 19 19 19 19 19 19 19 19 19 18 18 19 19 19 20 19 19 20 20 20 21 22 23 23 23 24 25 26 27 28 28
19 19 19 19 19 18 18 18 19 19 20 20 20 20 21 21 21 20 20 20 20 20 20 20 20 20 20 20 20 20 20 20 20 21 21 21 21 21 22 22 22 22 23 24 24 25 25 26 26 27 28 28
20 20 20 20 20 19 19 20 20 21 21 22 22 22 22 22 22 22 22 22 21 21 21 20 21 21 21 21 21 21 22 22 22 23 23 23 23 23 23 24 24 24 24 25 25 26 26 26 26 27 28 28
21 21 21 21 21 21 21 21 22 23 23 23 24 24 24 24 23 24 23 23 22 22 22 21 22 22 22 23 23 23 23 23 24 24 25 25 25 26 26 26 26 27 27 27 27 26 26 26 26 27 28 28
21 21 21 21 22 22 22 23 23 24 25 25 26 26 26 25 25 25 25 24 24 23 23 23 23 23 24 24 24 24 24 25 25 26 27 27 27 27 28 28 28 28 28 29 29 29 28 27 26 26 27 28
21 21 22 22 22 23 23 24 25 25 26 27 27 28 28 27 26 26 26 26 25 25 24 24 24 25 25 25 25 25 25 26 27 27 28 28 28 28 29 29 30 29 29 29 30 30 30 29 28 27 27 28
21 21 22 22 23 24 24 25 25 26 27 28 28 29 29 29 28 28 28 28 27 27 26 26 26 26 26 26 26 27 27 27 28 28 29 30 29 29 29 30 31 31 31 30 31 31 31 31 31 29 29 29
22 22 22 23 23 24 25 25 26 26 27 28 29 30 30 30 30 30 30 30 29 29 29 28 28 28 28 28 28 28 29 29 29 29 30 31 32 31 31 31 31 32 32 32 32 32 33 33 33 32 31 31
22 23 23 24 24 25 26 26 27 27 28 29 29 30 31 31 31 31 31 32 31 31 31 31 31 31 31 30 30 30 30 30 30 30 30 31 33 34 34 34 34 33 33 33 33 34 34 34 35 35 34 33
24 24 24 25 26 27 27 28 28 29 29 29 30 31 31 31 31 31 32 32 33 33 33 33 33 33 33 32 32 31 31 31 31 31 31 32 33 34 35 36 37 37 36 35 35 35 34 35 36 36 36 36
25 25 26 27 27 28 29 30 30 30 30 31 31 32 32 32 31 32 32 33 33 34 35 35 36 35 35 34 33 33 32 32 32 32 32 33 34 35 36 37 38 39 39 38 37 37 36 36 37 37 37 38
27 27 27 28 28 29 30 31 31 32 32 33 33 33 34 33 33 33 33 33 34 35 36 37 37 37 37 36 35 34 33 32 32 32 33 34 35 35 36 37 38 40 41 41 40 39 38 37 38 38 38 38
28 29 29 29 29 30 30 31 32 33 33 34 34 34 34 34 34 34 34 34 35 36 36 37 38 38 38 37 36 35 33 33 33 33 34 34 35 35 36 37 38 39 41 42 42 41 40 38 38 38 38 39
30 30 31 31 31 31 31 31 32 33 33 34 34 34 35 35 35 35 34 35 35 36 37 38 39 39 39 38 37 36 34 34 34 34 35 35 35 35 36 37 38 39 41 42 43 43 43 41 40 40 39 39
31 32 32 32 33 33 32 32 33 32 33 34 35 35 36 36 37 36 36 36 36 37 38 39 39 40 39 39 38 37 36 35 35 35 35 35 35 36 36 37 38 40 41 43 44 45 46 46 45 44 43 43
33 34 34 34 34 35 34 34 34 34 33 34 35 36 36 37 38 38 37 37 37 38 39 39 40 40 40 40 39 38 37 37 36 36 36 36 36 37 38 38 39 40 42 44 45 46 48 48 49 48 48 47
35 35 35 35 35 36 36 36 36 35 35 35 36 36 38 39 39 39 39 39 39 39 39 39 39 39 39 39 39 39 38 38 38 37 37 37 37 38 39 40 41 41 43 44 46 47 49 50 50 51 51 51
35 36 36 37 37 36 37 37 37 37 37 37 37 38 39 40 40 40 40 40 40 39 39 39 39 39 39 39 39 39 39 39 39 39 38 39 39 40 41 42 43 43 44 45 46 47 48 49 50 51 52 53
36 36 37 38 38 37 37 38 37 38 39 39 39 40 40 41 41 41 41 41 41 40 40 40 40 41 41 41 41 40 40 40 40 40 40 41 41 42 43 44 45 45 45 46 46 47 48 48 49 50 51 52
Wind_Direction
295 297 299 300 301 302 303 304 305 304 303 303 306 309 310 311 315 319 324 330 336 342 344 347 348 348 350 351 353 354 353 352 351 352 354 354 355 356 357 356 356 356 356 356 356 356 356 356 356 355 355 355
296 298 299 300 301 302 303 304 304 303 303 304 308 309 307 310 316 318 325 333 336 338 338 339 339 342 344 345 347 346 345 345 347 349 352 352 352 352 352 352 352 352 352 352 352 352 352 353 353 352 352 352
300 301 302 302 303 303 303 304 303 304 304 306 308 305 304 311 316 316 323 326 326 328 327 328 332 336 338 338 338 338 339 341 345 347 350 351 349 349 349 349 349 349 349 349 349 349 349 349 349 349 349 348
303 304 304 304 305 305 305 305 304 304 303 304 303 299 303 309 309 310 313 315 316 318 319 322 325 328 330 331 332 334 336 339 343 346 348 348 346 347 346 346 345 347 347 346 346 345 345 346 346 346 346 345
305 305 305 306 306 305 305 304 302 300 298 299 296 293 298 301 300 302 305 307 309 311 312 316 318 321 324 325 327 330 333 337 341 344 345 345 344 344 344 343 343 344 343 343 343 343 343 344 344 344 344 343
306 307 306 306 305 304 302 299 295 292 291 293 289 288 292 292 294 297 300 303 304 306 308 310 312 315 318 320 322 326 330 335 339 342 342 341 341 341 341 340 341 340 340 340 341 341 341 342 342 342 341 341
306 306 305 303 301 299 295 292 288 286 288 288 284 284 287 288 291 294 297 300 300 302 303 306 310 312 315 317 320 325 330 334 337 338 338 338 337 338 338 338 338 337 337 338 339 339 339 339 339 339 339 339
304 303 300 298 295 292 289 287 285 284 285 282 280 281 283 285 288 292 294 296 298 299 301 305 308 311 313 316 320 325 328 331 333 333 333 333 333 334 334 334 335 334 335 335 336 336 336 336 336 337 337 337
300 299 296 293 290 288 286 285 283 282 280 278 278 279 281 284 287 291 293 295 296 298 300 304 306 309 311 315 319 321 324 325 325 326 326 327 328 329 330 331 332 332 333 333 333 334 334 334 333 334 334 334
297 296 293 290 288 286 285 284 282 280 279 278 278 280 282 285 288 290 292 294 295 297 299 302 304 306 309 311 314 316 317 318 318 319 321 323 324 326 327 328 329 330 330 330 330 329 329 330 330 330 330 330
299 296 293 291 289 287 286 284 282 280 279 279 280 282 284 286 289 291 292 294 295 297 299 301 303 304 306 307 309 310 312 314 315 316 318 319 321 322 323 324 325 325 326 326 325 325 326 326 327 327 327 328
302 299 295 292 290 288 286 283 281 280 280 280 282 283 286 288 289 291 292 294 295 296 298 300 301 302 303 305 306 307 308 311 312 314 315 316 318 319 319 320 321 322 322 323 322 323 324 324 325 325 326 327
303 300 296 292 289 287 284 282 280 280 281 282 284 285 286 288 289 290 292 293 294 295 297 298 299 300 302 303 304 305 307 309 310 312 313 314 316 316 317 319 319 320 320 321 321 322 322 323 323 323 324 324
303 300 296 292 289 287 284 282 282 282 283 284 285 286 286 287 288 290 291 292 293 294 296 297 298 299 300 301 302 305 307 309 310 310 311 313 314 315 317 318 318 319 319 319 319 320 320 320 320 320 319 319
304 300 297 294 291 289 286 284 284 284 285 286 286 286 286 287 288 289 289 290 291 292 294 295 297 298 300 301 303 306 309 309 310 310 311 312 313 315 316 317 317 317 317 317 317 316 316 316 316 315 314 315
304 302 298 296 293 290 288 286 286 286 287 287 287 287 286 286 287 287 288 289 290 291 293 294 296 298 300 302 304 307 308 308 309 310 311 312 313 315 315 316 315 315 315 314 314 313 313 313 312 312 312 312
304 302 299 297 295 292 290 289 288 288 288 288 288 287 286 286 286 287 289 290 290 291 293 294 296 298 299 301 303 304 305 307 308 309 310 311 312 313 314 313 313 313 313 312 311 310 310 310 309 309 309 310
304 301 299 297 296 295 293 292 291 291 290 289 288 287 287 287 288 289 290 291 292 292 293 294 295 296 297 298 300 301 303 305 306 307 307 308 310 310 310 310 309 309 309 309 308 307 307 307 307 307 307 307
303 301 300 298 297 296 295 295 295 294 293 292 290 289 289 290 291 291 292 293 294 294 294 294 294 294 295 296 297 299 300 302 303 304 305 305 306 306 306 306 306 306 306 306 305 305 305 305 305 306 306 306
303 303 301 300 298 297 297 297 297 297 296 295 293 292 291 291 292 293 294 295 295 295 294 294 294 293 294 294 295 297 298 300 301 302 303 303 303 303 303 303 302 303 303 304 304 304 305 305 304 305 305 305
305 305 303 302 301 300 300 299 298 298 297 297 295 294 294 294 294 294 295 296 296 295 294 294 293 293 293 293 294 295 296 297 298 299 301 302 302 303 303 303 302 301 302 303 303 304 304 304 304 304 304 304
305 305 305 304 304 303 301 299 298 298 298 298 297 296 295 294 294 294 295 296 296 295 294 293 292 292 291 292 292 293 294 295 297 298 300 301 302 303 303 304 303 302 302 302 302 303 303 303 303 303 303 303
305 305 306 305 305 303 301 300 300 300 299 298 297 296 296 296 296 297 297 297 297 295 294 292 291 291 290 290 290 291 292 294 297 299 300 302 303 303 304 304 303 303 303 302 302 302 303 303 303 303 303 303
304 304 304 303 303 303 302 302 302 301 300 299 299 299 299 300 299 299 299 298 297 295 293 291 290 290 289 289 289 290 292 294 296 298 300 301 301 302 303 303 303 303 303 302 302 302 303 303 302 301 301 301
303 302 301 301 301 302 303 303 302 302 301 301 301 300 300 299 299 298 297 296 295 295 293 292 291 290 289 289 289 290 291 293 296 297 299 300 301 301 302 303 303 302 302 301 300 300 299 299 300 300 300 300
302 300 299 299 299 300 301 302 302 302 301 301 300 298 298 297 297 297 296 296 295 295 294 293 292 290 289 289 289 290 291 293 295 297 298 299 301 302 303 304 304 303 302 301 301 300 298 298 298 298 299 298
301 300 299 298 298 298 299 300 301 302 301 300 299 297 296 296 296 296 296 296 295 295 295 294 293 292 291 290 290 291 291 292 293 295 297 298 300 302 303 305 305 305 304 303 303 302 301 300 299 299 299 298
300 299 299 298 297 297 298 299 299 302 302 301 300 298 297 296 295 296 296 296 296 296 296 296 295 294 293 292 291 291 291 291 292 293 296 298 300 302 303 305 306 307 307 306 306 305 304 303 302 301 301 299
297 298 299 297 296 297 297 298 300 302 303 302 302 301 299 297 296 296 296 296 297 297 297 296 296 295 294 293 291 291 291 291 293 295 296 298 300 302 303 305 306 308 308 308 308 307 306 306 304 303 302 300
293 295 297 296 296 297 298 299 301 302 302 303 305 303 300 298 297 296 296 295 296 296 297 297 297 296 295 294 293 292 293 293 294 295 296 297 299 301 302 303 305 306 307 308 308 307 306 306 305 303 302 301
290 292 294 296 296 298 299 301 301 301 301 303 306 305 301 298 297 296 295 294 295 296 297 298 298 297 297 296 296 295 295 295 295 296 296 298 299 301 302 302 303 304 306 307 307 307 306 305 304 303 302 302